RYR50Y LFMU-EGSS

Flight info

Callsign RYR50Y
Flight time N/A
Altitude 34000
Route AFRIC G39 GAI DCT SECHE DCT UVELI DCT CNA DCT TUPAR UN861 DIKRO UM185 DESNA M185 TELTU
Aircraft B738/M-SDE2E3FGHIRWXY/LB1

Departure

Time 2026-04-29 21:16
Airport Béziers Vias airport (LFMU)

Arrival

Time N/A
Airport London Stansted Airport (EGSS)
Time Latitude Longitude Altitude Speed Heading
2026-04-29 21:06 43.32125 3.35401 63 ft 0 kts 299°
2026-04-29 21:11 43.32128 3.35392 63 ft 5 kts 299°
2026-04-29 21:12 43.32177 3.35325 63 ft 12 kts 348°
2026-04-29 21:12 43.32268 3.35331 63 ft 14 kts
2026-04-29 21:12 43.32346 3.35308 63 ft 12 kts 277°
2026-04-29 21:12 43.32351 3.35194 63 ft 12 kts 273°
2026-04-29 21:13 43.32358 3.35046 63 ft 19 kts 274°
2026-04-29 21:13 43.32370 3.34861 63 ft 18 kts 274°
2026-04-29 21:13 43.32380 3.34669 63 ft 23 kts 275°
2026-04-29 21:13 43.32393 3.34458 63 ft 22 kts 275°
2026-04-29 21:14 43.32404 3.34271 63 ft 17 kts 275°
2026-04-29 21:14 43.32387 3.34219 63 ft 4 kts 144°
2026-04-29 21:14 43.32391 3.34242 63 ft 4 kts 31°
2026-04-29 21:14 43.32404 3.34268 63 ft 1 kts 93°
2026-04-29 21:15 43.32402 3.34307 63 ft 13 kts 95°
2026-04-29 21:15 43.32381 3.34665 63 ft 70 kts 95°
2026-04-29 21:16 43.32327 3.35616 63 ft 128 kts 94°
2026-04-29 21:16 43.32256 3.37032 251 ft 158 kts 92°
2026-04-29 21:16 43.32188 3.38515 944 ft 157 kts 92°
2026-04-29 21:16 43.32256 3.40023 1550 ft 162 kts 69°
2026-04-29 21:17 43.32993 3.41211 2052 ft 176 kts 33°
2026-04-29 21:17 43.34195 3.41977 2399 ft 205 kts 23°
2026-04-29 21:17 43.35624 3.42694 2702 ft 233 kts 20°
2026-04-29 21:17 43.37267 3.43262 3091 ft 257 kts
2026-04-29 21:18 43.39074 3.42833 3738 ft 272 kts 338°
2026-04-29 21:18 43.40655 3.41377 4596 ft 278 kts 317°
2026-04-29 21:18 43.41989 3.39472 5438 ft 284 kts 311°
2026-04-29 21:18 43.43294 3.37398 6271 ft 290 kts 309°
2026-04-29 21:19 43.44603 3.35271 7164 ft 292 kts 309°
2026-04-29 21:19 43.45938 3.33140 8046 ft 295 kts 310°
2026-04-29 21:19 43.47301 3.30999 8899 ft 299 kts 310°
2026-04-29 21:19 43.48685 3.28853 9783 ft 300 kts 310°
2026-04-29 21:20 43.50074 3.26715 10698 ft 300 kts 311°
2026-04-29 21:20 43.51504 3.24574 11390 ft 309 kts 311°
2026-04-29 21:20 43.53014 3.22350 11809 ft 327 kts 311°
2026-04-29 21:20 43.54597 3.20041 12131 ft 346 kts 311°
2026-04-29 21:21 43.56313 3.17592 12414 ft 365 kts 313°
2026-04-29 21:21 43.58110 3.15050 12917 ft 375 kts 313°
2026-04-29 21:21 43.59933 3.12449 13601 ft 379 kts 312°
2026-04-29 21:21 43.61769 3.09811 14297 ft 383 kts 312°
2026-04-29 21:22 43.63616 3.07143 14983 ft 387 kts 312°
2026-04-29 21:22 43.65479 3.04436 15652 ft 391 kts 312°
2026-04-29 21:22 43.67355 3.01700 16303 ft 394 kts 312°
2026-04-29 21:22 43.69247 2.98932 16934 ft 398 kts 312°
2026-04-29 21:23 43.71128 2.96171 17540 ft 401 kts 312°
2026-04-29 21:23 43.73031 2.93336 18133 ft 405 kts 311°
2026-04-29 21:23 43.74964 2.90472 18714 ft 408 kts 309°
2026-04-29 21:23 43.76644 2.87298 19276 ft 410 kts 300°
2026-04-29 21:24 43.77956 2.83785 19822 ft 413 kts 291°
2026-04-29 21:24 43.78897 2.80028 20360 ft 415 kts 284°
2026-04-29 21:24 43.79563 2.76129 20883 ft 418 kts 281°
2026-04-29 21:24 43.80200 2.72190 21384 ft 421 kts 282°
2026-04-29 21:25 43.80905 2.68232 21864 ft 425 kts 283°
2026-04-29 21:25 43.81623 2.64304 22327 ft 428 kts 283°
2026-04-29 21:25 43.82362 2.60294 22785 ft 432 kts 283°
2026-04-29 21:25 43.83094 2.56248 23223 ft 435 kts 282°
2026-04-29 21:26 43.83791 2.52159 23649 ft 438 kts 282°
2026-04-29 21:26 43.84487 2.48041 24064 ft 441 kts 282°
2026-04-29 21:26 43.85197 2.43897 24488 ft 443 kts 282°
2026-04-29 21:26 43.85922 2.39733 24900 ft 446 kts 282°
2026-04-29 21:27 43.86640 2.35538 25308 ft 448 kts 282°
2026-04-29 21:27 43.87345 2.31379 25697 ft 451 kts 281°
2026-04-29 21:27 43.88058 2.27134 26082 ft 453 kts 281°
2026-04-29 21:27 43.88769 2.22878 26452 ft 455 kts 281°
2026-04-29 21:28 43.89482 2.18593 26807 ft 457 kts 281°
2026-04-29 21:28 43.90197 2.14291 27154 ft 459 kts 281°
2026-04-29 21:28 43.90914 2.09961 27492 ft 461 kts 281°
2026-04-29 21:28 43.91636 2.05616 27830 ft 463 kts 281°
2026-04-29 21:29 43.92356 2.01255 28148 ft 465 kts 281°
2026-04-29 21:29 43.93072 1.96869 28459 ft 467 kts 281°
2026-04-29 21:29 43.93774 1.92525 28790 ft 468 kts 280°
2026-04-29 21:29 43.94492 1.88125 29228 ft 467 kts 282°
2026-04-29 21:30 43.95398 1.83812 29678 ft 466 kts 286°
2026-04-29 21:30 43.96580 1.79623 30088 ft 467 kts 292°
2026-04-29 21:30 43.97986 1.75561 30485 ft 467 kts 294°
2026-04-29 21:30 43.99480 1.71563 30880 ft 466 kts 295°
2026-04-29 21:31 44.00980 1.67586 31263 ft 465 kts 295°
2026-04-29 21:31 44.02454 1.63666 31634 ft 464 kts 295°
2026-04-29 21:31 44.03945 1.59695 31992 ft 463 kts 295°
2026-04-29 21:31 44.05429 1.55733 32373 ft 461 kts 295°
2026-04-29 21:32 44.06905 1.51783 32722 ft 460 kts 294°
2026-04-29 21:32 44.08380 1.47831 33064 ft 460 kts 294°
2026-04-29 21:32 44.09849 1.43887 33400 ft 459 kts 294°
2026-04-29 21:32 44.11315 1.39950 33744 ft 458 kts 294°
2026-04-29 21:33 44.12798 1.36027 34070 ft 457 kts 294°
2026-04-29 21:33 44.14252 1.32164 34370 ft 457 kts 294°
2026-04-29 21:33 44.15720 1.28249 34708 ft 455 kts 294°
2026-04-29 21:33 44.17178 1.24345 34998 ft 455 kts 294°
2026-04-29 21:34 44.18634 1.20438 35301 ft 454 kts 294°
2026-04-29 21:34 44.20084 1.16534 35595 ft 453 kts 294°
2026-04-29 21:34 44.21531 1.12634 35884 ft 452 kts 294°
2026-04-29 21:35 44.24429 1.04793 35972 ft 456 kts 294°
2026-04-29 21:35 44.27303 0.96995 35973 ft 453 kts 294°
2026-04-29 21:36 44.30188 0.89185 35971 ft 453 kts 294°
2026-04-29 21:36 44.33079 0.81340 35967 ft 454 kts 293°
2026-04-29 21:37 44.35947 0.73476 35966 ft 454 kts 293°
2026-04-29 21:37 44.38786 0.65648 35966 ft 455 kts 293°
2026-04-29 21:38 44.41651 0.57752 35962 ft 456 kts 295°
2026-04-29 21:38 44.43454 0.54070 35959 ft 463 kts 307°
2026-04-29 21:38 44.45797 0.50949 35962 ft 469 kts 319°
2026-04-29 21:39 44.51471 0.46334 35962 ft 474 kts 331°
2026-04-29 21:39 44.57417 0.42441 35961 ft 475 kts 332°
2026-04-29 21:40 44.63388 0.38503 35962 ft 474 kts 332°
2026-04-29 21:40 44.69355 0.34534 35963 ft 474 kts 332°
2026-04-29 21:41 44.75311 0.30555 35964 ft 474 kts 332°
2026-04-29 21:41 44.81239 0.26625 35964 ft 474 kts 332°
2026-04-29 21:42 44.87189 0.22635 35962 ft 474 kts 332°
2026-04-29 21:42 44.93137 0.18623 35962 ft 474 kts 332°
2026-04-29 21:43 44.99084 0.14600 35960 ft 474 kts 332°
2026-04-29 21:43 45.04994 0.10597 35959 ft 474 kts 332°
2026-04-29 21:44 45.10933 0.06569 35959 ft 473 kts 332°
2026-04-29 21:44 45.16876 0.02525 35959 ft 474 kts 331°
2026-04-29 21:45 45.22810 -0.01524 35955 ft 475 kts 331°
2026-04-29 21:45 45.28775 -0.05604 35960 ft 483 kts 332°
2026-04-29 21:46 45.34852 -0.09769 35960 ft 485 kts 332°
2026-04-29 21:46 45.40929 -0.13893 35961 ft 484 kts 332°
2026-04-29 21:47 45.46999 -0.18052 35962 ft 484 kts 332°
2026-04-29 21:47 45.53021 -0.22206 35963 ft 484 kts 331°
2026-04-29 21:48 45.59074 -0.26395 35964 ft 484 kts 331°
2026-04-29 21:48 45.65155 -0.30565 35963 ft 486 kts 334°
2026-04-29 21:49 45.71544 -0.33772 35965 ft 488 kts 341°
2026-04-29 21:49 45.77976 -0.36639 35963 ft 487 kts 340°
2026-04-29 21:50 45.84450 -0.39555 35962 ft 488 kts 340°
2026-04-29 21:50 45.90920 -0.42487 35960 ft 488 kts 340°
2026-04-29 21:51 45.97392 -0.45432 35957 ft 488 kts 340°
2026-04-29 21:51 46.07047 -0.49815 35952 ft 487 kts 341°
2026-04-29 21:52 46.13512 -0.52759 35950 ft 487 kts 341°
2026-04-29 21:52 46.19975 -0.55711 35951 ft 487 kts 341°
2026-04-29 21:53 46.26395 -0.58664 35950 ft 487 kts 341°
2026-04-29 21:53 46.32852 -0.61646 35950 ft 487 kts 340°
2026-04-29 21:54 46.39311 -0.64635 35951 ft 487 kts 341°
2026-04-29 21:54 46.45920 -0.66858 35952 ft 489 kts 351°
2026-04-29 21:55 46.52621 -0.68004 35953 ft 488 kts 353°
2026-04-29 21:55 46.59375 -0.69102 35955 ft 488 kts 353°
2026-04-29 21:56 46.66126 -0.70222 35958 ft 488 kts 353°
2026-04-29 21:56 46.72872 -0.71353 35962 ft 488 kts 353°
2026-04-29 21:57 46.79574 -0.72481 35967 ft 488 kts 353°
2026-04-29 21:57 46.86310 -0.73616 35967 ft 487 kts 353°
2026-04-29 21:58 46.93044 -0.74757 35969 ft 487 kts 353°
2026-04-29 21:58 46.99779 -0.75904 35970 ft 487 kts 353°
2026-04-29 21:59 47.06460 -0.77045 35971 ft 486 kts 353°
2026-04-29 21:59 47.13180 -0.78195 35973 ft 486 kts 353°
2026-04-29 22:00 47.19904 -0.79350 35977 ft 486 kts 353°
2026-04-29 22:00 47.26621 -0.80501 35985 ft 486 kts 353°
2026-04-29 22:01 47.33282 -0.81650 35985 ft 485 kts 353°
2026-04-29 22:01 47.39986 -0.82813 35987 ft 485 kts 353°
2026-04-29 22:02 47.46692 -0.83979 35991 ft 485 kts 353°
2026-04-29 22:02 47.53392 -0.85146 35995 ft 484 kts 353°
2026-04-29 22:03 47.60101 -0.86048 36000 ft 484 kts 355°
2026-04-29 22:03 47.66779 -0.86832 36004 ft 484 kts 355°
2026-04-29 22:04 47.73496 -0.87638 36008 ft 484 kts 355°
2026-04-29 22:04 47.80215 -0.88454 36012 ft 484 kts 355°
2026-04-29 22:05 47.86925 -0.89276 36016 ft 483 kts 355°
2026-04-29 22:06 47.96934 -0.90501 36020 ft 483 kts 355°
2026-04-29 22:06 48.03637 -0.91328 36022 ft 482 kts 355°
2026-04-29 22:07 48.10293 -0.92151 36022 ft 479 kts 355°
2026-04-29 22:07 48.16932 -0.92975 36022 ft 479 kts 355°
2026-04-29 22:08 48.23535 -0.93797 36022 ft 479 kts 355°
2026-04-29 22:08 48.30173 -0.94626 36022 ft 478 kts 355°
2026-04-29 22:09 48.36804 -0.95457 36022 ft 478 kts 355°
2026-04-29 22:09 48.43434 -0.96289 36024 ft 478 kts 355°
2026-04-29 22:10 48.50065 -0.97124 36026 ft 478 kts 355°
2026-04-29 22:10 48.56649 -0.97955 36029 ft 478 kts 355°
2026-04-29 22:11 48.63280 -0.98795 36037 ft 478 kts 355°
2026-04-29 22:11 48.69907 -0.99636 36049 ft 478 kts 355°
2026-04-29 22:12 48.76481 -1.00473 36062 ft 477 kts 355°
2026-04-29 22:12 48.83093 -1.01317 36072 ft 477 kts 355°
2026-04-29 22:13 48.89701 -1.02162 36080 ft 476 kts 355°
2026-04-29 22:13 48.96297 -1.03008 36086 ft 476 kts 355°
2026-04-29 22:14 49.02894 -1.03857 36090 ft 476 kts 355°
2026-04-29 22:14 49.09444 -1.04701 36094 ft 475 kts 355°
2026-04-29 22:15 49.16025 -1.05552 36096 ft 474 kts 355°
2026-04-29 22:15 49.22595 -1.06404 36104 ft 474 kts 355°
2026-04-29 22:16 49.29160 -1.07254 36104 ft 473 kts 355°
2026-04-29 22:16 49.35676 -1.08101 36105 ft 473 kts 355°
2026-04-29 22:17 49.42233 -1.08959 36105 ft 473 kts 355°
2026-04-29 22:17 49.48781 -1.09820 36106 ft 472 kts 355°
2026-04-29 22:18 49.55325 -1.10354 36099 ft 470 kts
2026-04-29 22:18 49.58515 -1.09343 36104 ft 468 kts 20°
2026-04-29 22:18 49.61458 -1.07265 36111 ft 465 kts 32°
2026-04-29 22:19 49.66678 -1.01576 36110 ft 462 kts 40°
2026-04-29 22:19 49.71739 -0.95454 36108 ft 463 kts 38°
2026-04-29 22:20 49.77509 -0.91020 36118 ft 468 kts 18°
2026-04-29 22:20 49.83906 -0.89390 36129 ft 470 kts
2026-04-29 22:21 49.90430 -0.88557 36133 ft 470 kts
2026-04-29 22:21 49.96841 -0.87654 36131 ft 450 kts
2026-04-29 22:21 49.99907 -0.87214 36128 ft 435 kts
2026-04-29 22:22 50.02866 -0.86802 36130 ft 420 kts
2026-04-29 22:22 50.08536 -0.86002 36139 ft 408 kts
2026-04-29 22:23 50.14214 -0.85196 36153 ft 411 kts
2026-04-29 22:23 50.19913 -0.84384 36162 ft 411 kts
2026-04-29 22:24 50.25599 -0.83573 36170 ft 410 kts
2026-04-29 22:24 50.31289 -0.82760 36177 ft 410 kts
2026-04-29 22:24 50.34093 -0.82355 35917 ft 412 kts
2026-04-29 22:25 50.36981 -0.81936 34997 ft 422 kts
2026-04-29 22:25 50.39957 -0.81503 33923 ft 437 kts
2026-04-29 22:25 50.43034 -0.81052 32736 ft 452 kts
2026-04-29 22:25 50.46207 -0.80584 31563 ft 465 kts
2026-04-29 22:26 50.49458 -0.80105 30465 ft 474 kts
2026-04-29 22:26 50.52761 -0.79619 29637 ft 476 kts
2026-04-29 22:26 50.56037 -0.79136 29125 ft 470 kts
2026-04-29 22:26 50.59234 -0.78665 28633 ft 464 kts
2026-04-29 22:27 50.62433 -0.78195 28061 ft 460 kts
2026-04-29 22:27 50.65613 -0.77740 27489 ft 457 kts
2026-04-29 22:27 50.68765 -0.77286 26937 ft 453 kts
2026-04-29 22:27 50.71895 -0.76834 26395 ft 449 kts
2026-04-29 22:28 50.74973 -0.76388 25704 ft 441 kts
2026-04-29 22:28 50.78015 -0.75897 24882 ft 437 kts
2026-04-29 22:28 50.80984 -0.75023 24116 ft 431 kts 15°
2026-04-29 22:28 50.83809 -0.73730 23387 ft 425 kts 21°
2026-04-29 22:29 50.86560 -0.72111 22657 ft 419 kts 24°
2026-04-29 22:29 50.89244 -0.70373 21942 ft 415 kts 25°
2026-04-29 22:29 50.91894 -0.68629 21252 ft 410 kts 26°
2026-04-29 22:29 50.94512 -0.66911 20553 ft 406 kts 26°
2026-04-29 22:30 50.97107 -0.65213 19861 ft 401 kts 26°
2026-04-29 22:30 50.99678 -0.63532 19170 ft 397 kts 26°
2026-04-29 22:30 51.02221 -0.61872 18494 ft 393 kts 26°
2026-04-29 22:30 51.04737 -0.60230 17892 ft 388 kts 27°
2026-04-29 22:31 51.07165 -0.58645 17607 ft 374 kts 27°
2026-04-29 22:31 51.09514 -0.57110 17507 ft 357 kts 27°
2026-04-29 22:31 51.11758 -0.55645 17416 ft 341 kts 28°
2026-04-29 22:31 51.13909 -0.54254 17328 ft 327 kts 27°
2026-04-29 22:32 51.15982 -0.52923 17130 ft 318 kts 28°
2026-04-29 22:32 51.18017 -0.51608 16800 ft 314 kts 28°
2026-04-29 22:32 51.20032 -0.50300 16415 ft 312 kts 28°
2026-04-29 22:32 51.22032 -0.48996 16032 ft 310 kts 28°
2026-04-29 22:33 51.24026 -0.47693 15655 ft 308 kts 28°
2026-04-29 22:33 51.25975 -0.46415 15299 ft 306 kts 28°
2026-04-29 22:33 51.27942 -0.45123 14929 ft 304 kts 28°
2026-04-29 22:33 51.29891 -0.43841 14573 ft 302 kts 28°
2026-04-29 22:34 51.31831 -0.42563 14208 ft 300 kts 28°
2026-04-29 22:34 51.33758 -0.41292 13845 ft 299 kts 28°
2026-04-29 22:34 51.35675 -0.40027 13483 ft 297 kts 28°
2026-04-29 22:34 51.37580 -0.38768 13125 ft 296 kts 28°
2026-04-29 22:35 51.39451 -0.37532 12774 ft 294 kts 28°
2026-04-29 22:35 51.41335 -0.36287 12434 ft 292 kts 28°
2026-04-29 22:35 51.43170 -0.34931 11954 ft 291 kts 34°
2026-04-29 22:35 51.44924 -0.33235 11207 ft 298 kts 39°
2026-04-29 22:36 51.46638 -0.31300 10458 ft 304 kts 41°
2026-04-29 22:36 51.48486 -0.29568 9841 ft 315 kts 23°
2026-04-29 22:36 51.50684 -0.29277 9374 ft 322 kts 359°
2026-04-29 22:36 51.52899 -0.29835 8904 ft 321 kts 355°
2026-04-29 22:37 51.55057 -0.30453 8435 ft 318 kts 354°
2026-04-29 22:37 51.57223 -0.31088 7959 ft 315 kts 354°
2026-04-29 22:37 51.59373 -0.31580 7503 ft 309 kts
2026-04-29 22:37 51.61459 -0.31433 7037 ft 293 kts 22°
2026-04-29 22:38 51.63149 -0.29866 6592 ft 274 kts 48°
2026-04-29 22:38 51.64406 -0.27636 6150 ft 266 kts 57°
2026-04-29 22:38 51.65547 -0.25316 5698 ft 262 kts 58°
2026-04-29 22:38 51.66587 -0.22944 5248 ft 257 kts 62°
2026-04-29 22:39 51.67510 -0.20507 4797 ft 252 kts 65°
2026-04-29 22:39 51.68341 -0.18091 4358 ft 248 kts 66°
2026-04-29 22:39 51.69161 -0.15668 3932 ft 244 kts 65°
2026-04-29 22:39 51.69957 -0.13289 3583 ft 238 kts 65°
2026-04-29 22:40 51.70733 -0.10948 3306 ft 235 kts 66°